N5OSI Weather Reports


time (UTC)temp
C
wind
direction
speed
KPH
gust
KPH
rain 1hr
cm
rain 24hr
cm
rain mn
cm
humidity
%
barometer
mb
20260510045004 19 0 0.0 0.0 0.00 0.00 0.00 78 1002.9
20260510044003 19 0 0.0 0.0 0.00 0.00 0.00 77 1002.7
20260510043504 19 0 0.0 0.0 0.00 0.00 0.00 77 1002.8
20260510043003 19 0 0.0 0.0 0.00 0.00 0.00 77 1002.8
20260510042504 19 0 0.0 0.0 0.00 0.00 0.00 76 1002.7
20260510042003 19 0 0.0 0.0 0.00 0.00 0.00 76 1002.7
20260510041004 20 0 0.0 0.0 0.00 0.03 0.00 76 1002.6
20260510040503 20 0 0.0 0.0 0.00 0.05 0.00 76 1002.7
20260510040004 20 0 0.0 0.0 0.00 0.08 0.00 75 1002.5
20260510035503 20 0 0.0 0.0 0.00 0.10 0.00 75 1002.4
20260510035003 20 0 0.0 0.0 0.00 0.15 0.00 75 1002.4
20260510034504 20 0 0.0 0.0 0.00 0.20 0.00 75 1002.4
20260510034003 20 0 0.0 0.0 0.00 0.23 0.00 74 1002.3
20260510033504 20 0 0.0 0.0 0.00 0.25 0.00 73 1002.3
20260510033004 20 0 0.0 0.0 0.00 0.28 0.00 73 1002.3
20260510032503 20 0 0.0 0.0 0.00 0.30 0.00 73 1002.2
20260510031503 20 0 0.0 0.0 0.00 0.30 0.00 72 1002.2
20260510031004 20 0 0.0 0.0 0.00 0.30 0.00 72 1002.2
20260510030503 20 0 0.0 0.0 0.00 0.30 0.00 71 1002.2
20260510025504 20 0 0.0 0.0 0.00 0.30 0.00 70 1002.0
20260510025003 20 0 0.0 0.0 0.00 0.30 0.00 70 1002.0
20260510024504 20 0 0.0 0.0 0.00 0.30 0.00 69 1001.9
20260510024003 20 0 0.0 0.0 0.00 0.30 0.00 69 1001.8
20260510023503 20 0 0.0 0.0 0.00 0.30 0.00 68 1001.7
20260510022503 20 0 0.0 0.0 0.00 0.30 0.00 68 1001.5
20260510022003 20 0 0.0 0.0 0.00 0.30 0.00 69 1001.4
20260510021503 20 0 0.0 0.0 0.00 0.30 0.00 67 1001.4
20260510020504 21 0 0.0 0.0 0.00 0.30 0.00 66 1001.2
20260510020004 21 0 0.0 0.0 0.00 0.30 0.00 66 1001.1
20260510015503 21 0 0.0 0.0 0.00 0.30 0.00 65 1000.9
20260510015004 21 0 0.0 0.0 0.00 0.30 0.00 64 1000.9
20260510014503 21 0 0.0 0.0 0.00 0.30 0.00 64 1000.8
20260510014003 21 0 0.0 0.0 0.00 0.30 0.00 63 1000.7
20260510013503 21 0 0.0 0.0 0.00 0.30 0.00 63 1000.7
20260510013003 21 0 0.0 0.0 0.00 0.30 0.00 63 1000.7
20260510012003 22 0 0.0 0.0 0.00 0.30 0.00 62 1000.5
20260510011003 22 0 0.0 0.0 0.00 0.30 0.00 61 1000.4
20260510010503 22 0 0.0 0.0 0.00 0.30 0.00 60 1000.4
20260510010004 23 0 0.0 0.0 0.00 0.30 0.00 60 1000.4
20260510005503 23 0 0.0 0.0 0.00 0.30 0.00 60 1000.4
20260510005003 23 0 0.0 0.0 0.00 0.30 0.00 60 1000.4
20260510004504 23 0 0.0 0.0 0.00 0.30 0.00 59 1000.2
20260510004003 24 0 0.0 0.0 0.00 0.30 0.00 59 1000.2
20260510003504 24 0 0.0 0.0 0.00 0.30 0.00 58 1000.3
20260510003004 24 0 0.0 0.0 0.00 0.30 0.00 57 1000.2
20260510002503 25 0 0.0 0.0 0.00 0.30 0.00 56 1000.2
20260510002004 25 0 0.0 0.0 0.00 0.30 0.00 55 1000.1
20260510001503 25 0 0.0 0.0 0.00 0.30 0.00 53 1000.0
20260510001004 25 0 0.0 0.0 0.00 0.30 0.00 52 1000.1
20260510000503 26 0 0.0 0.0 0.00 0.30 0.00 51 1000.1
20260510000004 26 0 0.0 0.0 0.00 0.30 0.00 50 1000.1
20260509235503 26 0 0.0 0.0 0.00 0.30 0.00 51 1000.1
20260509235003 26 0 0.0 0.0 0.00 0.30 0.00 47 1000.0
20260509234504 27 0 0.0 0.0 0.00 0.30 0.00 46 1000.0
20260509234003 27 0 0.0 0.0 0.00 0.30 0.00 46 1000.0
20260509233503 27 0 0.0 0.0 0.00 0.30 0.00 46 1000.0
20260509232004 28 0 0.0 0.0 0.00 0.30 0.00 45 1000.0
20260509231503 28 201 0.0 4.8 0.00 0.30 0.00 45 999.9
20260509230503 28 0 0.0 0.0 0.00 0.30 0.00 50 1000.0
20260509230004 28 105 0.0 3.2 0.00 0.30 0.00 40 999.9
20260509225003 28 0 0.0 0.0 0.00 0.30 0.00 40 999.9
20260509224004 29 101 0.0 9.7 0.00 0.30 0.00 39 999.9
20260509223503 29 110 1.6 9.7 0.00 0.30 0.00 39 999.9
20260509223004 29 112 1.6 9.7 0.00 0.30 0.00 37 999.8
20260509222503 30 269 0.0 3.2 0.00 0.30 0.00 39 999.8
20260509222004 30 289 0.0 3.2 0.00 0.30 0.00 37 999.8
20260509221503 30 290 0.0 3.2 0.00 0.30 0.00 39 999.8
20260509221004 30 265 0.0 3.2 0.00 0.30 0.00 39 999.7
20260509220503 30 248 0.0 3.2 0.00 0.30 0.00 38 999.7
20260509215503 30 137 1.6 4.8 0.00 0.30 0.00 40 999.7
20260509215003 30 224 0.0 4.8 0.00 0.30 0.00 41 999.8
20260509214504 30 112 1.6 4.8 0.00 0.30 0.00 40 999.8
20260509214003 29 75 1.6 4.8 0.00 0.30 0.00 41 999.8
20260509213004 29 88 1.6 4.8 0.00 0.30 0.00 42 999.8
20260509212503 29 96 1.6 4.8 0.00 0.30 0.00 43 999.9
20260509211503 29 83 1.6 8.0 0.00 0.30 0.00 44 1000.0
20260509211004 30 93 1.6 4.8 0.00 0.30 0.00 43 1000.0
20260509210503 30 95 1.6 8.0 0.00 0.30 0.00 43 1000.0
20260509210004 30 86 1.6 8.0 0.00 0.30 0.00 43 1000.0
20260509205503 30 0 0.0 0.0 0.00 0.30 0.00 45 1000.1
20260509205003 30 0 0.0 0.0 0.00 0.30 0.00 45 1000.1
20260509204504 30 0 0.0 0.0 0.00 0.30 0.00 46 1000.1
20260509204003 30 99 0.0 3.2 0.00 0.30 0.00 45 1000.1
20260509203504 30 98 1.6 4.8 0.00 0.30 0.00 47 1000.2
20260509203003 30 125 1.6 4.8 0.00 0.30 0.00 45 1000.3
20260509202504 30 244 1.6 4.8 0.00 0.30 0.00 46 1000.4
20260509202003 30 227 1.6 4.8 0.00 0.30 0.00 45 1000.4
20260509201504 29 121 1.6 4.8 0.00 0.30 0.00 44 1000.5
20260509201003 29 152 1.6 6.4 0.00 0.30 0.00 47 1000.6
20260509200503 29 139 1.6 6.4 0.00 0.30 0.00 48 1000.6
20260509200004 29 108 1.6 6.4 0.00 0.30 0.00 45 1000.6
20260509195003 29 161 1.6 3.2 0.00 0.30 0.00 46 1000.7
20260509194504 29 148 1.6 4.8 0.00 0.30 0.00 44 1000.7
20260509194003 29 91 1.6 4.8 0.00 0.30 0.00 47 1000.7
20260509193504 29 79 0.0 4.8 0.00 0.30 0.00 44 1000.7
20260509193003 29 255 1.6 11.3 0.00 0.30 0.00 44 1000.7
20260509192504 30 251 1.6 11.3 0.00 0.30 0.00 41 1000.8
20260509192003 29 238 1.6 3.2 0.00 0.30 0.00 45 1000.8
20260509190503 28 200 0.0 3.2 0.00 0.30 0.00 47 1001.1
20260509190004 28 140 1.6 3.2 0.00 0.30 0.00 47 1001.0
20260509185003 28 95 0.0 3.2 0.00 0.30 0.00 46 1001.0
20260509184504 28 184 0.0 4.8 0.00 0.30 0.00 50 1001.2
20260509184003 28 142 0.0 4.8 0.00 0.30 0.00 46 1001.2
20260509183504 27 142 0.0 3.2 0.00 0.30 0.00 47 1001.3
20260509183003 28 170 0.0 3.2 0.00 0.30 0.00 47 1001.3
20260509182504 28 213 0.0 4.8 0.00 0.30 0.00 52 1001.3
20260509182003 28 212 0.0 4.8 0.00 0.30 0.00 55 1001.4
20260509181004 27 239 0.0 3.2 0.00 0.30 0.00 61 1001.5
20260509180503 27 213 0.0 4.8 0.00 0.30 0.00 62 1001.5
20260509180004 27 205 1.6 4.8 0.00 0.30 0.00 61 1001.6
20260509175503 27 179 1.6 4.8 0.00 0.30 0.00 62 1001.5
20260509175003 27 209 1.6 4.8 0.00 0.30 0.00 60 1001.5
20260509174504 27 250 1.6 4.8 0.00 0.30 0.00 63 1001.6
20260509174003 26 240 1.6 4.8 0.00 0.30 0.00 64 1001.6
20260509173504 26 235 1.6 6.4 0.00 0.30 0.00 63 1001.6
20260509172504 26 247 1.6 6.4 0.00 0.30 0.00 64 1001.6
20260509172003 26 256 0.0 6.4 0.00 0.30 0.00 65 1001.6
20260509171503 26 286 0.0 3.2 0.00 0.30 0.00 66 1001.6
20260509171003 26 277 0.0 4.8 0.00 0.30 0.00 67 1001.6
20260509170504 26 224 0.0 4.8 0.00 0.30 0.00 67 1001.6
20260509170003 26 214 0.0 3.2 0.00 0.30 0.00 69 1001.7
20260509165504 25 102 0.0 4.8 0.00 0.30 0.00 73 1001.7
20260509165003 25 228 1.6 6.4 0.00 0.30 0.00 69 1001.7
20260509164504 25 247 1.6 6.4 0.00 0.30 0.00 71 1001.7
20260509164003 25 255 1.6 4.8 0.00 0.30 0.00 71 1001.8
20260509163503 25 259 1.6 4.8 0.00 0.30 0.00 74 1001.8
20260509163004 24 255 0.0 4.8 0.00 0.30 0.00 74 1001.8
20260509162503 24 147 0.0 3.2 0.00 0.30 0.00 75 1001.7
20260509162004 23 266 0.0 3.2 0.00 0.30 0.00 76 1001.8
20260509161503 23 268 0.0 3.2 0.00 0.30 0.00 76 1001.8
20260509161004 23 269 0.0 3.2 0.00 0.30 0.00 78 1001.8
20260509160503 23 259 0.0 1.6 0.00 0.30 0.00 82 1001.8
20260509160004 23 263 0.0 4.8 0.00 0.30 0.00 78 1001.8
20260509155503 23 260 0.0 4.8 0.00 0.30 0.00 78 1001.8
20260509155003 22 254 0.0 3.2 0.00 0.30 0.00 81 1001.8
20260509154504 22 256 0.0 3.2 0.00 0.30 0.00 82 1001.9
20260509154003 22 256 1.6 4.8 0.00 0.30 0.00 83 1001.9
20260509153003 21 254 0.0 3.2 0.00 0.30 0.00 84 1001.8
20260509152503 21 218 0.0 1.6 0.00 0.30 0.00 85 1001.8
20260509152003 21 0 0.0 0.0 0.00 0.30 0.00 85 1001.8
20260509151503 20 0 0.0 0.0 0.00 0.30 0.00 88 1001.8
20260509151003 20 0 0.0 0.0 0.00 0.30 0.00 87 1001.9
20260509150503 20 0 0.0 0.0 0.00 0.30 0.00 87 1002.0
20260509150004 20 0 0.0 0.0 0.00 0.30 0.00 87 1001.9
20260509145503 19 0 0.0 0.0 0.00 0.30 0.00 89 1002.0
20260509145004 19 0 0.0 0.0 0.00 0.30 0.00 89 1002.0
20260509144503 19 265 0.0 3.2 0.00 0.30 0.00 90 1002.0
20260509144003 18 265 0.0 4.8 0.00 0.30 0.00 90 1002.2
20260509143504 18 265 0.0 4.8 0.00 0.30 0.00 91 1002.3
20260509143003 18 0 0.0 0.0 0.00 0.30 0.00 92 1002.3
20260509142504 18 0 0.0 0.0 0.00 0.30 0.00 93 1002.2
20260509141503 17 0 0.0 0.0 0.00 0.30 0.00 92 1002.2
20260509141003 17 269 0.0 4.8 0.00 0.30 0.00 93 1002.3
20260509140503 17 267 0.0 4.8 0.00 0.30 0.00 93 1002.3
20260509135503 17 244 0.0 3.2 0.00 0.30 0.00 94 1002.2
20260509135003 17 0 0.0 0.0 0.00 0.30 0.00 93 1002.2
20260509134504 17 239 0.0 3.2 0.00 0.30 0.00 94 1002.2
20260509134003 17 239 0.0 3.2 0.00 0.30 0.00 94 1002.2
20260509133504 16 238 0.0 1.6 0.00 0.30 0.00 93 1002.3
20260509133004 16 238 0.0 1.6 0.00 0.30 0.00 94 1002.2
20260509132503 16 0 0.0 0.0 0.00 0.30 0.00 93 1002.1
20260509132003 16 238 0.0 1.6 0.00 0.30 0.00 94 1002.0
20260509131504 16 238 0.0 1.6 0.00 0.30 0.00 94 1002.0
20260509131003 16 238 0.0 1.6 0.00 0.30 0.00 94 1002.0
20260509130503 16 238 0.0 1.6 0.00 0.30 0.00 94 1001.9
20260509130004 16 0 0.0 0.0 0.00 0.30 0.00 94 1001.8
20260509125503 16 0 0.0 0.0 0.00 0.30 0.00 94 1001.8
20260509125004 16 0 0.0 0.0 0.00 0.30 0.00 94 1001.8
20260509124503 16 0 0.0 0.0 0.00 0.30 0.00 93 1001.8
20260509124003 15 0 0.0 0.0 0.00 0.30 0.00 93 1001.7
20260509123503 15 0 0.0 0.0 0.00 0.30 0.00 93 1001.5
20260509123003 15 0 0.0 0.0 0.00 0.30 0.00 93 1001.5
20260509122504 15 0 0.0 0.0 0.00 0.30 0.00 93 1001.4
20260509122003 15 0 0.0 0.0 0.00 0.30 0.00 93 1001.3
20260509121504 15 0 0.0 0.0 0.00 0.30 0.00 93 1001.2
20260509121003 15 0 0.0 0.0 0.00 0.30 0.00 92 1001.1
20260509120503 15 0 0.0 0.0 0.00 0.30 0.00 92 1001.2
20260509120004 15 0 0.0 0.0 0.00 0.30 0.00 92 1001.2
20260509115003 15 0 0.0 0.0 0.00 0.30 0.00 92 1001.0
20260509114503 15 0 0.0 0.0 0.00 0.30 0.00 92 1001.0
20260509114003 15 0 0.0 0.0 0.00 0.30 0.00 92 1000.9
20260509113503 15 0 0.0 0.0 0.00 0.30 0.00 92 1000.9
20260509112504 15 0 0.0 0.0 0.00 0.30 0.00 92 1000.7
20260509112003 15 0 0.0 0.0 0.00 0.30 0.00 92 1000.7
20260509111503 16 0 0.0 0.0 0.00 0.30 0.00 92 1000.6
20260509111003 16 0 0.0 0.0 0.00 0.30 0.00 92 1000.6
20260509110503 16 0 0.0 0.0 0.00 0.30 0.00 92 1000.5
20260509110004 16 0 0.0 0.0 0.00 0.30 0.00 92 1000.5
20260509105503 16 0 0.0 0.0 0.00 0.30 0.00 92 1000.4
20260509105004 16 0 0.0 0.0 0.00 0.30 0.00 92 1000.4
20260509104503 16 0 0.0 0.0 0.00 0.30 0.00 92 1000.4
20260509104004 16 0 0.0 0.0 0.00 0.30 0.00 92 1000.2
20260509103504 16 0 0.0 0.0 0.00 0.30 0.00 92 1000.2
20260509102504 16 0 0.0 0.0 0.00 0.30 0.00 92 1000.3
20260509101503 16 0 0.0 0.0 0.00 0.30 0.00 92 1000.2
20260509101004 16 0 0.0 0.0 0.00 0.30 0.00 92 1000.2
20260509100503 16 0 0.0 0.0 0.00 0.30 0.00 92 1000.2
20260509100005 16 0 0.0 0.0 0.00 0.30 0.00 92 1000.2
20260509095503 16 0 0.0 0.0 0.00 0.30 0.00 92 1000.2
20260509095003 16 0 0.0 0.0 0.00 0.30 0.00 92 1000.2
20260509094504 16 0 0.0 0.0 0.00 0.30 0.00 92 1000.2
20260509094003 16 0 0.0 0.0 0.00 0.30 0.00 92 1000.2
20260509093503 16 0 0.0 0.0 0.00 0.30 0.00 92 1000.2
20260509092503 16 0 0.0 0.0 0.00 0.30 0.00 92 1000.1
20260509092004 16 0 0.0 0.0 0.00 0.30 0.00 92 1000.1
20260509091003 16 0 0.0 0.0 0.00 0.30 0.00 92 1000.2
20260509090504 16 0 0.0 0.0 0.00 0.30 0.00 92 1000.2
20260509090003 16 0 0.0 0.0 0.00 0.30 0.00 92 1000.3
20260509085504 16 0 0.0 0.0 0.00 0.30 0.00 92 1000.3
20260509085003 16 0 0.0 0.0 0.00 0.30 0.00 92 1000.3
20260509083503 16 238 0.0 1.6 0.00 0.30 0.00 92 1000.4
20260509083004 16 238 0.0 1.6 0.00 0.30 0.00 92 1000.5
20260509082503 16 238 0.0 3.2 0.00 0.30 0.00 92 1000.5
20260509082003 16 238 0.0 3.2 0.00 0.30 0.00 92 1000.6
20260509081504 16 0 0.0 0.0 0.00 0.30 0.00 92 1000.6
20260509081004 16 0 0.0 0.0 0.00 0.30 0.00 92 1000.6
20260509080503 16 0 0.0 0.0 0.00 0.30 0.00 92 1000.7
20260509080004 16 0 0.0 0.0 0.00 0.30 0.00 91 1000.7
20260509075503 16 0 0.0 0.0 0.00 0.30 0.00 91 1000.8
20260509075004 16 0 0.0 0.0 0.00 0.30 0.00 91 1000.8
20260509074503 16 0 0.0 0.0 0.00 0.30 0.00 91 1000.8
20260509073504 16 0 0.0 0.0 0.00 0.30 0.00 91 1001.0
20260509072503 16 0 0.0 0.0 0.00 0.30 0.00 91 1000.9
20260509072003 16 0 0.0 0.0 0.00 0.30 0.00 91 1000.8
20260509071504 16 0 0.0 0.0 0.00 0.30 0.00 91 1000.9
20260509071004 16 0 0.0 0.0 0.00 0.30 0.00 91 1000.9
20260509070503 16 0 0.0 0.0 0.00 0.30 0.00 91 1000.8
20260509070004 16 0 0.0 0.0 0.00 0.30 0.00 91 1000.7
20260509065503 16 0 0.0 0.0 0.00 0.30 0.00 91 1000.6
20260509065003 16 0 0.0 0.0 0.00 0.30 0.00 91 1000.6
20260509064003 16 238 0.0 1.6 0.00 0.30 0.00 91 1000.4
20260509063503 16 238 0.0 1.6 0.00 0.30 0.00 91 1000.5
20260509063004 16 238 0.0 1.6 0.00 0.30 0.00 91 1000.5
20260509062503 16 238 0.0 1.6 0.00 0.30 0.00 90 1000.4
20260509062003 16 0 0.0 0.0 0.00 0.30 0.00 90 1000.4
20260509061003 16 0 0.0 0.0 0.00 0.30 0.00 90 1000.4
20260509060504 16 0 0.0 0.0 0.00 0.30 0.00 89 1000.4
20260509060004 17 0 0.0 0.0 0.00 0.30 0.00 89 1000.6
20260509055504 17 0 0.0 0.0 0.00 0.30 0.00 89 1000.6
20260509054503 17 0 0.0 0.0 0.00 0.30 0.00 89 1000.6
20260509054003 17 0 0.0 0.0 0.00 0.30 0.00 89 1000.7
20260509053503 17 0 0.0 0.0 0.00 0.30 0.00 89 1000.6
20260509053004 17 238 0.0 1.6 0.00 0.30 0.00 89 1000.8
20260509052503 17 238 0.0 1.6 0.00 0.30 0.00 89 1000.9
20260509052003 17 0 0.0 0.0 0.00 0.30 0.00 89 1001.0
20260509051003 17 0 0.0 0.0 0.03 0.30 0.00 89 1000.5
20260509050503 17 0 0.0 0.0 0.05 0.30 0.00 89 1000.5
20260509045504 17 257 1.6 4.8 0.10 0.30 0.30 88 1000.7